Location: ?????
(32.7281°N, 34.9563°E)
Time: 11:28:58
(UTC+00:00)

YAOGAN 1 - Pass Details

Date: 29 October 2020
Orbit: 618 x 620 km, 97.9° (Epoch: 26 November)

Event Time Altitude Azimuth Distance (km) Brightness Sun altitude
Rises 15:34:31 0° 133° (SE) 2,884 5.6 -9.6°
Reaches altitude 10° 15:37:09 10° 117° (ESE) 1,982 4.7 -10.1°
Maximum altitude 15:40:18 20° 70° (ENE) 1,435 3.8 -10.8°
Drops below altitude 10° 15:43:28 10° 23° (NNE) 1,990 4.9 -11.4°
Sets 15:46:07 0° 6° (N) 2,900 5.8 -12.0°
